Location: Newark
(40.7060°N, 73.9980°W)
Time: 12:56:49
(UTC+00:00)

Envisat - Visible Passes

Search period start: 25 February 2021 00:00
Search period end: 07 March 2021 00:00
Orbit: 764 x 766 km, 98.1° (Epoch: 24 February)

Date Brightness Start Highest point End Pass type
(mag) Time Alt. Az. Time Alt. Az. Time Alt. Az.
25 Feb 3.5 10:25:29 10° NNE 10:30:32 63° E 10:35:33 10° S visible
25 Feb 6.7 23:22:38 10° WSW 23:24:11 11° W 23:25:45 10° WNW visible
26 Feb 5.1 09:49:12 10° NE 09:53:33 28° E 09:57:53 10° SSE visible
27 Feb 6.2 09:14:21 10° ENE 09:16:22 12° E 09:18:23 10° ESE visible
27 Feb 3.0 10:50:50 10° N 10:55:55 74° WNW 11:00:59 10° SSW visible
28 Feb 4.0 10:14:09 10° NNE 10:19:05 49° E 10:23:59 10° S visible
28 Feb 6.4 23:09:49 10° SW 23:12:38 15° W 23:15:27 10° NW visible
01 Mar 5.5 09:38:07 10° NE 09:42:02 22° E 09:45:56 10° SE visible
02 Mar 3.1 10:39:24 10° NNE 10:44:30 87° ESE 10:49:35 10° SSW visible
03 Mar 4.5 10:02:52 10° NNE 10:07:36 38° E 10:12:19 10° SSE visible
04 Mar 5.9 09:27:11 10° NE 09:30:31 17° E 09:33:49 10° SE visible
05 Mar 3.4 10:28:00 10° NNE 10:33:05 69° ESE 10:38:08 10° S visible
05 Mar 6.8 23:26:13 10° W 23:26:47 10° W 23:27:21 10° W visible
06 Mar 5.0 09:51:39 10° NE 09:56:08 30° E 10:00:34 10° SSE visible
